Weather Roundup
Issued by NWS Chicago, IL

Current Version | Previous Version | Text Only | Print | Product List | Glossary On
Versions: 1 2 3 4 5 6 7 8 9 10 11 12 13 14 15 16 17 18 19 20 21 22 23 24 25 26 27 28 29 30 31 32 33 34 35 36 37 38 39 40 41 42 43 44 45 46 47 48 49 50
000
NZUS59 KLOT 290308
HRRLOT

CHICAGO AREA WEATHER ROUNDUP
NATIONAL WEATHER SERVICE CHICAGO/ROMEOVILLE IL
1000 PM CDT SAT MAY 28 2016

NOTE: "FAIR" INDICATES FEW OR NO CLOUDS BELOW 12,000 FEET WITH NO
SIGNIFICANT WEATHER AND/OR OBSTRUCTIONS TO VISIBILITY.

* THESE STATIONS ARE NOT UNDER NWS QUALITY CONTROL. THEY ALSO MAY NOT
  REPORT WEATHER SUCH AS PRECIPITATION OR FOG.

ILZ005-006-012>014-019>023-290400-
NORTHEAST ILLINOIS

CITY           SKY/WX    TMP DP  RH WIND       PRES   REMARKS
OHARE          MOCLDY    75  61  61 W16G24    29.94R
MIDWAY         MOCLDY    79  63  57 S13       29.94R HX  80
AURORA         TSTM      67  63  87 SW13      29.97R FOG
LANSING*       PTCLDY    75  64  67 S14G22    29.95R
JOLIET*        PTCLDY    78  67  71 S17G24    29.94R
WAUKEGAN       CLOUDY    71  60  68 SW16G25   29.96R
DUPAGE AIRPORT CLOUDY    69  59  70 W18G28    29.96R
WHEELING       CLOUDY    72  58  61 W9G31     29.97R
KANKAKEE*      PTCLDY    73  65  76 S13       29.97R
MORRIS*        PTCLDY    74  57  56 SW15G30   29.93R
LEWIS AIRPORT* PTCLDY    75  64  66 S16G24    29.94R
$$

WIZ051-052-058>065-066-070>072-290400-
SOUTHEAST WISCONSIN

CITY           SKY/WX    TMP DP  RH WIND       PRES   REMARKS
MILWAUKEE      LGT RAIN  67  62  84 S14       29.93R
KENOSHA*       LGT RAIN  67  61  81 SW15G29   29.95R
RACINE*        LGT RAIN  66  59  78 SW12      29.96R
BURLINGTON     DRIZZLE   64  62  95 S7        29.93R
WAUKESHA       LGT RAIN  63  61  94 S8        29.93R
WEST BEND      LGT RAIN  63  59  88 S6        29.92R
$$

INZ001>003-010>013-019-020-290400-
NORTHWEST INDIANA

CITY           SKY/WX    TMP DP  RH WIND       PRES   REMARKS
GARY*          PTCLDY    77  70  78 S8        29.95R
MICHIGAN CITY* NOT AVBL
RENSSELAER*    NOT AVBL
VALPARAISO     CLEAR     75  63  66 S10       29.98R
$$

LMZ740>746-290400-
SOUTHERN LAKE MICHIGAN

STATION/POSITION TIME  SKY/WX   TEMP WIND        PRES    VSBY
                                AIR  DIR/SP/G
                 (UTC)          (F)  (DEG/KT/KT) (MB)    (MI)
HARRISON CRIB    0200            75  170/ 22/ 25   N/A
BURNHAM HARBOR   0300            77  200/ 12/ 14   N/A
CALUMET HARBOR   0200                            1012.3F
BURNS HARBOR     0200            77  180/ 11/ 19 1013.9S
MICHIGAN CITY    0200            78  140/  9/ 13   N/A
$$

ABBREVIATIONS USED IN REMARKS
   TC - TEMPERATURE IN CELSIUS
  WCI - WIND CHILL INDEX
   HX - HEAT INDEX
  VSB - VISIBILITY
$$



USA.gov is the U.S. government's official web portal to all federal, state and local government web resources and services.